Home > Weather > Duluth > Past weeks

Flag for USA Past Weather in Duluth, Minnesota, USA — Yesterday and Last 2 Weeks

Now
82 °F

Sunny.


Feels Like: 82 °F
Forecast: 65 / 81 °F
Wind: 17 mph from West

Location: Sky Harbor Airport

Current Time: Aug 24, 2016 at 2:54:10 PM

Latest Report: Aug 24, 2016 at 2:34 PM


Visibility: 10 mi

Pressure: 29.81 "Hg

Humidity: 45%

Dew Point: 59 °F

Location of DuluthLocation

Past Weather in Duluth — Graph

°F

Duluth Temperature Yesterday

Maximum temperature yesterday: 88 °F (at 2:54 PM)
Minimum temperature yesterday: 66 °F (at 6:14 AM)
Average temperature yesterday: 76 °F

High & Low Weather Summary for the Past Weeks

 TemperatureHumidityPressure
High88 °F (Aug 9, 4:53 PM)100% (Aug 10, 9:34 PM)30.17 "Hg (Aug 10, 9:34 PM)
Low57 °F (Aug 21, 3:34 AM)33% (Aug 21, 2:54 PM)29.68 "Hg (Aug 20, 2:54 PM)
Average70 °F79%29.92 "Hg
* Reported Aug 9 1:14 PM — Aug 24 1:53 PM, Duluth, Weather by CustomWeather, © 2016

Note: Actual official high and low records may vary slightly from our data, if they occured in-between our weather recording intervals... More about our weather records

Advertising

Duluth Weather History for the Previous 24 Hours

Scroll right to see more
 ConditionsComfort  
Time TempWeatherWind HumidityBarometerVisibility
1:53 PM
Wed, Aug 24
82 °FScattered clouds.10 mph62%29.81 "Hg10 mi
1:34 PM81 °FSunny.8 mph70%29.81 "Hg10 mi
1:14 PM79 °FSunny.9 mph74%29.82 "Hg10 mi
12:53 PM77 °FBroken clouds.12 mph79%29.82 "Hg10 mi
12:34 PM75 °FMore clouds than sun.13 mph83%29.82 "Hg10 mi
12:14 PM75 °FBroken clouds.8 mph83%29.82 "Hg10 mi
11:53 AM75 °FBroken clouds.13 mph78%29.83 "Hg10 mi
11:33 AM75 °FCloudy.14 mph78%29.83 "Hg10 mi
11:14 AM75 °FMore clouds than sun.14 mph78%29.83 "Hg10 mi
10:53 AM75 °FBroken clouds.6 mph78%29.82 "Hg10 mi
10:34 AM75 °FSunny.No wind74%29.82 "Hg10 mi
10:14 AM73 °FScattered clouds.No wind78%29.81 "Hg10 mi
9:54 AM72 °FMostly cloudy.3 mph83%29.81 "Hg10 mi
9:33 AM72 °FPartly sunny.7 mph83%29.81 "Hg10 mi
9:14 AM70 °FCloudy.8 mph88%29.81 "Hg10 mi
8:54 AM70 °FMore clouds than sun.6 mph88%29.80 "Hg10 mi
8:33 AM70 °FCloudy.5 mph83%29.80 "Hg10 mi
8:14 AM70 °FCloudy.5 mph83%29.81 "Hg10 mi
7:54 AM70 °FMostly cloudy.3 mph83%29.80 "Hg10 mi
7:33 AM70 °FMostly cloudy.3 mph83%29.80 "Hg10 mi
7:14 AM68 °FOvercast.3 mph88%29.80 "Hg10 mi
6:54 AM68 °FOvercast.No wind88%29.80 "Hg10 mi
6:33 AM70 °FMostly cloudy.3 mph83%29.80 "Hg10 mi
6:14 AM70 °FOvercast.3 mph83%29.80 "Hg10 mi
5:53 AM70 °FMostly cloudy.3 mph83%29.81 "Hg10 mi
5:34 AM70 °FMostly cloudy.3 mph83%29.81 "Hg10 mi
5:13 AM70 °FMostly cloudy.No wind83%29.81 "Hg10 mi
4:54 AM70 °FMostly cloudy.5 mph83%29.81 "Hg10 mi
4:34 AM68 °FOvercast.No wind88%29.81 "Hg10 mi
4:13 AM68 °FPassing clouds.No wind88%29.82 "Hg10 mi
3:54 AM68 °FClear.No wind88%29.81 "Hg10 mi
3:34 AM70 °FClear.No wind83%29.82 "Hg10 mi
3:13 AM70 °FClear.5 mph83%29.82 "Hg10 mi
2:54 AM70 °FClear.7 mph83%29.82 "Hg10 mi
2:34 AM70 °FClear.6 mph83%29.82 "Hg10 mi
2:13 AM70 °FClear.6 mph88%29.82 "Hg10 mi
1:54 AM70 °FClear.6 mph88%29.82 "Hg10 mi
1:34 AM70 °FClear.5 mph88%29.82 "Hg10 mi
1:13 AM72 °FClear.6 mph83%29.83 "Hg10 mi
12:54 AM72 °FClear.3 mph83%29.83 "Hg10 mi
12:34 AM72 °FClear.3 mph83%29.84 "Hg10 mi
12:13 AM72 °FClear.No wind83%29.83 "Hg10 mi
11:54 PM
Tue, Aug 23
73 °FClear.3 mph78%29.84 "Hg10 mi
11:34 PM73 °FClear.5 mph78%29.86 "Hg10 mi
11:13 PM73 °FClear.3 mph83%29.86 "Hg10 mi
10:54 PM73 °FClear.3 mph83%29.86 "Hg10 mi
10:34 PM73 °FClear.No wind83%29.86 "Hg10 mi
10:14 PM75 °FClear.6 mph78%29.86 "Hg10 mi
9:54 PM75 °FThunderstorms. Clear.8 mph78%29.87 "Hg10 mi
9:33 PM75 °FClear.5 mph83%29.87 "Hg10 mi
9:14 PM75 °FClear.7 mph83%29.86 "Hg10 mi
8:54 PM77 °FSunny.7 mph79%29.87 "Hg10 mi
8:33 PM79 °FSunny.9 mph74%29.86 "Hg10 mi
8:14 PM79 °FSunny.9 mph74%29.86 "Hg10 mi
7:54 PM79 °FSunny.12 mph74%29.86 "Hg10 mi
7:33 PM81 °FSunny.13 mph70%29.86 "Hg10 mi
7:14 PM81 °FSunny.14 mph70%29.87 "Hg10 mi
6:54 PM81 °FSunny.15 mph74%29.87 "Hg10 mi
6:33 PM82 °FSunny.14 mph66%29.87 "Hg10 mi
6:14 PM82 °FSunny.20 mph66%29.86 "Hg10 mi
5:54 PM84 °FSunny.17 mph62%29.86 "Hg10 mi
5:33 PM84 °FSunny.16 mph62%29.86 "Hg10 mi
5:14 PM86 °FSunny.18 mph59%29.85 "Hg10 mi
4:53 PM88 °FSunny.18 mph52%29.85 "Hg10 mi
4:34 PM88 °FSunny.14 mph55%29.85 "Hg10 mi
4:13 PM86 °FSunny.14 mph55%29.85 "Hg10 mi
3:54 PM84 °FSunny.13 mph58%29.85 "Hg10 mi
3:34 PM86 °FSunny.12 mph59%29.86 "Hg10 mi
3:14 PM88 °FSunny.18 mph55%29.86 "Hg10 mi
2:54 PM88 °FSunny.20 mph52%29.86 "Hg10 mi
2:33 PM86 °FSunny.14 mph59%29.86 "Hg10 mi
2:14 PM86 °FSunny.13 mph59%29.86 "Hg10 mi
Weather by CustomWeather, © 2016

See weather overviewHow to use our weather pages